Theta_e
282 281 281 280 280 280 279 279 279 279 278 278 278 278 278 278 278 278 278 279 279 279 279 279 278 277 277 277 277 277 277 277 277 277 277 277 277 277 277 277 278 278
282 281 280 280 279 279 279 278 278 278 277 277 277 277 277 277 277 277 278 278 278 278 278 278 277 277 276 276 276 276 276 276 276 277 277 277 277 277 277 277 277 277
281 280 280 279 279 279 278 278 277 277 277 277 277 277 276 276 276 277 277 277 277 277 277 276 276 276 276 276 276 276 276 276 276 276 276 276 276 277 277 277 277 277
280 280 279 279 279 278 278 277 277 277 276 276 276 276 276 276 276 276 277 276 276 276 275 275 275 275 275 275 275 275 275 275 275 275 276 276 276 276 276 276 277 277
280 279 279 279 278 278 278 277 277 277 276 276 276 276 276 276 276 276 276 275 275 275 275 274 274 274 274 274 274 274 274 275 275 275 275 275 275 275 275 276 276 276
280 279 279 278 278 278 278 277 277 276 276 276 276 276 276 276 276 275 275 274 274 274 274 274 274 273 273 273 273 273 273 274 274 274 274 274 274 275 275 275 275 275
279 279 278 278 278 278 277 277 277 276 276 276 276 276 275 276 276 275 274 273 273 273 273 273 273 272 272 272 273 273 273 273 273 273 273 273 273 274 274 275 275 274
279 278 278 278 277 277 277 277 276 276 276 276 275 275 275 276 275 274 273 273 272 272 272 272 272 272 272 272 272 272 272 272 272 272 272 273 273 274 274 274 273 273
278 278 277 277 277 276 276 276 276 276 276 275 275 275 276 275 274 274 273 272 272 271 271 271 271 271 271 271 271 271 271 271 271 272 272 272 273 274 274 273 272 273
277 277 277 277 277 276 276 276 276 276 276 275 275 275 275 275 274 273 272 271 271 271 271 271 271 271 271 271 271 271 271 271 271 271 271 271 272 273 272 272 272 272
276 276 276 276 276 276 276 276 276 275 275 274 274 274 274 274 273 272 271 271 270 270 270 270 270 270 270 270 271 271 271 271 271 271 272 271 271 272 271 271 271 272
276 276 276 276 276 276 276 275 275 274 274 274 274 274 274 274 273 272 271 270 270 270 270 270 270 270 270 271 271 271 271 271 271 271 272 271 271 271 271 271 271 272
275 276 276 276 276 275 275 275 275 274 274 274 274 274 274 273 272 271 270 269 269 269 269 270 270 270 270 271 271 271 271 271 271 271 271 271 271 271 271 271 272 272
275 276 276 276 275 275 274 274 274 274 274 274 274 274 273 272 271 270 269 269 269 269 269 270 270 270 270 270 270 270 271 271 271 271 271 272 272 272 272 272 272 272
275 276 275 275 274 274 274 274 273 274 274 274 275 274 273 272 271 269 268 269 269 269 270 270 270 270 270 270 270 271 271 272 272 272 272 272 273 273 273 273 274 274
275 275 275 274 274 274 274 273 273 273 274 274 274 273 272 271 270 269 268 269 269 269 269 269 269 269 269 270 271 272 272 273 273 273 273 273 273 274 274 274 275 275
274 274 274 273 273 273 273 273 272 273 274 274 273 272 271 270 269 268 269 269 269 269 269 269 269 269 269 270 272 273 273 273 273 274 274 274 275 275 275 276 276 276
274 274 273 273 273 273 273 272 272 273 274 273 272 271 270 269 268 268 268 268 268 268 268 268 268 269 270 271 272 272 273 274 274 274 275 275 276 276 276 276 276 276
273 273 273 273 273 272 272 272 272 273 273 271 270 269 268 268 268 267 267 267 268 267 268 268 268 268 269 271 272 273 274 274 275 275 275 275 276 276 276 276 276 276
273 273 272 272 272 272 271 271 273 273 271 270 268 267 267 267 267 267 267 267 267 267 267 267 267 268 269 271 272 273 274 275 275 275 275 275 275 275 275 275 275 275
272 272 272 272 271 271 271 272 273 272 270 268 267 266 266 267 267 267 267 267 266 266 266 267 267 268 270 271 272 273 274 275 275 275 275 275 275 274 275 275 275 275
272 272 272 271 271 270 271 272 272 270 267 267 266 266 266 266 266 266 266 266 266 266 266 267 268 269 270 271 272 273 274 274 274 274 274 274 274 274 274 274 274 275
272 271 271 271 270 270 271 272 271 268 266 266 266 266 266 265 265 266 266 266 266 266 266 267 268 269 270 271 272 273 274 274 274 274 274 274 274 275 275 275 275 275
271 271 271 270 270 270 271 271 269 267 266 266 265 265 265 265 265 265 265 266 266 266 267 267 268 269 270 271 272 273 274 274 274 274 274 274 275 275 275 275 275 275
271 271 270 270 270 270 271 270 268 267 266 266 265 265 265 265 265 265 265 265 266 267 267 268 269 269 270 271 272 273 274 274 274 274 275 275 275 275 275 275 275 275
270 270 270 269 269 270 270 269 268 267 267 266 266 265 264 264 264 264 265 265 266 267 268 268 269 269 270 271 272 273 274 274 274 275 275 275 275 275 275 275 275 275
Wind_Speed
21 19 18 16 15 14 13 12 12 13 14 14 14 14 15 17 18 19 20 21 23 24 26 26 27 27 26 26 25 23 23 24 24 24 24 25 26 27 28 29 30 29
21 20 18 16 14 14 13 13 13 14 14 14 14 14 15 17 18 19 20 22 23 24 25 26 26 26 25 25 23 23 23 24 25 24 24 25 26 27 29 29 30 30
21 20 18 16 15 13 13 13 13 14 14 14 14 14 15 16 17 19 20 22 23 23 22 23 24 24 24 23 22 23 24 24 25 24 25 26 26 27 28 27 28 29
20 19 18 16 15 13 12 13 12 12 13 13 14 14 15 16 17 19 21 22 21 21 20 21 22 22 22 22 21 23 24 24 25 25 25 26 25 26 27 28 29 31
20 18 17 15 13 12 11 11 11 12 12 13 14 14 14 15 17 18 20 19 17 17 18 19 20 20 20 21 21 23 23 24 24 23 24 26 25 25 26 28 30 31
19 17 16 14 12 11 11 10 11 11 12 12 13 14 15 16 18 18 18 18 16 17 18 19 20 20 20 20 21 22 22 23 23 23 24 26 26 25 26 28 30 30
18 17 15 13 11 10 10 10 10 10 11 12 14 15 15 17 19 18 19 20 18 18 20 21 20 20 20 20 21 22 22 23 23 23 24 25 26 26 27 29 30 30
17 16 14 11 10 9 9 9 9 10 11 12 13 14 16 18 19 19 20 21 20 20 21 20 20 20 20 19 20 22 22 22 22 23 24 25 26 28 30 29 29 30
17 15 13 10 9 8 8 8 9 10 11 12 13 14 16 18 19 20 21 21 20 20 20 19 19 19 19 19 20 22 23 23 23 23 24 26 28 31 31 29 28 29
16 14 12 10 8 8 8 8 9 10 11 12 13 15 17 18 20 21 21 20 19 19 19 19 19 19 20 20 21 22 23 23 24 24 26 27 29 31 30 28 29 29
16 13 12 10 9 8 8 8 9 9 10 12 13 15 17 18 20 20 20 19 19 19 19 20 20 20 21 21 21 22 23 24 25 25 28 29 30 29 28 28 29 30
16 13 12 10 9 8 8 8 8 9 10 12 13 15 17 19 20 20 20 19 19 20 20 21 21 21 21 21 22 23 24 25 26 27 29 30 30 29 29 29 31 32
15 14 12 10 9 8 7 7 8 9 10 11 13 15 17 18 19 20 20 19 19 20 21 21 21 21 21 22 23 23 24 25 27 28 29 29 30 31 31 32 34 35
16 14 12 10 9 7 7 7 8 9 10 11 14 16 17 18 19 19 19 18 19 20 20 20 21 21 22 22 22 23 25 26 28 28 30 31 31 32 32 33 34 36
16 14 12 10 8 7 7 7 8 9 10 11 13 15 16 17 19 19 18 18 18 18 19 20 20 21 21 21 23 24 25 26 26 26 28 31 33 34 34 35 35 36
16 14 12 10 8 7 7 7 8 8 9 11 13 14 16 17 18 18 17 16 17 18 19 20 20 22 22 23 25 27 28 28 28 27 28 30 33 35 35 35 36 38
16 14 11 10 9 7 7 8 7 7 9 11 12 14 15 16 17 16 15 16 17 18 19 20 21 23 25 26 28 29 30 31 31 31 31 31 33 34 34 35 36 37
16 14 12 10 9 8 8 7 6 7 9 11 12 13 14 15 16 16 16 16 17 17 19 21 23 27 27 27 30 31 31 32 32 31 31 33 33 34 35 35 35 35
16 14 12 10 9 8 7 5 5 7 8 10 12 13 13 14 16 17 17 17 17 18 20 21 25 29 29 28 31 32 32 33 32 30 31 34 35 35 36 36 36 36
16 14 12 10 9 7 6 4 5 7 8 9 10 12 12 14 17 18 18 19 18 19 21 23 27 30 30 30 32 33 33 33 32 31 33 34 35 35 36 36 36 37
16 14 13 11 9 7 4 2 4 7 8 8 10 11 12 14 16 17 18 19 19 20 21 25 29 30 29 31 32 33 34 34 32 32 33 33 34 35 36 36 36 36
17 15 13 11 9 7 3 1 4 6 7 7 10 11 12 14 15 16 18 18 18 21 24 29 32 30 28 30 31 32 34 32 30 31 32 32 34 36 37 37 36 35
17 16 14 12 9 6 2 0 3 5 6 7 9 11 13 14 16 17 18 18 20 24 27 31 33 29 27 29 30 31 33 31 30 30 31 31 34 36 37 37 36 35
18 16 14 12 9 6 3 0 3 4 5 7 9 11 13 15 15 16 16 17 23 27 27 28 29 26 26 28 29 30 32 30 29 30 31 32 34 36 36 36 37 37
18 16 14 11 8 6 3 1 2 4 5 7 9 11 13 13 13 14 16 19 23 25 24 23 25 25 25 27 29 31 31 29 29 30 31 31 33 34 35 37 38 37
18 16 13 11 8 6 3 1 1 3 5 7 9 11 12 12 13 14 17 18 19 20 20 20 22 24 26 27 30 32 31 31 30 30 30 30 31 33 36 38 37 36
Wind_Direction
216 218 222 226 230 236 240 245 251 256 263 269 271 277 283 291 299 305 312 314 315 314 313 311 307 304 301 297 292 283 277 275 271 268 265 262 261 262 261 260 259 259
216 219 222 225 229 236 242 248 254 260 266 271 276 279 281 289 299 307 313 315 316 315 311 309 306 302 297 290 286 281 275 273 270 268 267 264 263 263 261 262 261 259
215 219 223 225 230 237 245 252 259 264 271 277 280 281 283 290 301 310 316 317 316 311 306 304 301 297 293 285 280 277 273 270 270 270 269 267 265 264 264 265 264 263
213 218 222 227 233 240 247 254 262 267 273 280 283 285 288 294 305 314 318 317 312 305 299 297 294 290 287 283 279 275 272 271 271 272 271 269 267 266 267 269 268 267
212 216 221 227 234 242 250 258 267 271 277 284 288 291 293 299 310 315 317 312 302 295 292 289 290 288 284 282 279 274 273 273 272 272 272 271 270 268 269 272 271 268
210 214 220 227 233 242 252 261 271 277 285 290 295 299 300 308 316 315 312 308 299 293 292 290 289 288 284 281 277 274 274 274 274 274 273 273 272 271 271 272 271 267
207 213 218 225 233 242 254 265 275 282 289 296 301 304 307 313 317 314 311 310 303 299 300 296 290 286 282 278 276 275 274 274 275 276 274 273 273 274 275 275 272 268
205 211 216 223 232 244 256 267 278 284 292 300 303 305 312 316 315 313 313 312 306 302 301 295 286 284 281 278 277 276 276 276 277 279 277 274 275 278 279 277 272 269
204 209 214 222 231 243 256 269 279 287 297 301 303 309 316 316 313 313 313 310 304 302 300 291 284 284 283 279 278 278 279 280 280 280 279 275 278 282 281 277 273 270
202 206 211 219 229 241 255 270 280 291 299 299 303 312 317 315 313 314 312 309 303 298 294 289 285 286 286 284 282 281 282 283 282 281 279 277 280 282 279 275 273 272
199 203 208 216 226 241 256 270 283 293 297 299 306 313 315 315 314 313 311 308 304 297 292 290 288 289 289 288 286 286 285 284 283 282 282 280 279 277 275 274 273 271
196 200 207 215 227 240 254 268 283 292 294 301 308 311 312 314 314 315 312 307 302 298 293 291 290 290 290 290 291 290 288 286 284 285 285 282 277 274 272 272 272 270
194 199 206 214 225 237 252 269 282 289 295 303 307 309 312 313 314 316 313 306 301 300 296 292 292 292 291 292 294 294 291 289 288 287 286 282 279 277 272 269 269 267
194 200 205 213 222 233 250 268 278 285 295 303 306 310 313 314 316 314 309 305 302 299 295 293 292 293 293 293 295 296 294 292 290 288 286 284 284 282 277 273 272 267
193 198 203 211 220 231 246 260 271 280 295 303 307 313 315 316 319 315 306 301 298 294 292 293 292 291 293 294 295 297 297 294 291 288 287 286 284 281 277 273 273 271
192 197 201 208 216 227 240 252 265 280 298 304 309 316 318 318 319 314 303 294 292 294 294 294 291 289 292 294 294 297 298 297 295 291 287 284 281 279 276 272 271 271
190 195 199 206 214 224 237 249 265 285 301 308 314 319 320 318 315 308 298 292 292 294 295 295 293 293 295 296 297 300 300 298 296 293 289 287 283 281 280 278 276 275
189 193 197 204 211 222 235 250 273 296 308 313 317 320 318 315 311 303 298 299 297 296 297 296 296 299 301 299 300 302 302 301 298 294 293 292 289 287 286 284 284 282
188 190 195 202 209 221 235 256 288 305 314 318 319 320 315 309 307 305 304 305 302 299 300 298 300 306 305 302 304 305 304 304 301 297 296 295 293 292 290 288 287 285
187 188 192 198 205 216 231 264 301 311 318 321 320 317 311 306 307 307 308 310 307 304 303 302 305 310 308 304 306 307 307 307 304 300 298 296 295 293 291 289 287 285
183 186 189 194 200 208 222 272 310 315 319 321 317 312 309 308 308 307 308 310 311 308 305 305 309 310 307 305 307 308 309 309 305 301 300 297 296 294 290 289 287 284
182 184 187 190 194 198 199 281 310 313 317 318 315 313 312 311 309 308 307 307 311 315 311 311 313 311 305 306 310 310 311 310 306 302 300 296 296 295 292 289 287 284
181 183 185 187 188 183 165 336 307 310 313 314 316 316 315 314 312 310 309 307 312 318 317 314 313 312 308 308 310 312 313 311 307 303 300 296 295 295 294 291 287 284
180 181 183 184 179 163 137 110 296 305 313 317 320 319 317 319 318 310 305 308 313 318 319 311 306 307 308 309 311 314 315 313 308 304 299 296 296 296 295 293 290 287
178 179 180 178 166 147 134 147 285 309 325 324 322 322 320 322 320 309 305 310 314 316 314 304 300 304 308 310 313 316 317 315 311 307 301 298 299 299 297 296 294 291
176 176 175 168 152 136 136 147 297 321 331 327 325 328 326 322 322 316 308 308 309 306 302 298 299 305 309 312 316 317 319 318 315 310 306 303 304 303 301 300 298 295